Flight Track Log - Related Links

Times and Time Zones

All times are in EDT time to prevent confusion due to time zone crossing. See the N568PA flight status page for this flight to view local times or setup timezone preferences in your user account.

Time Position Orientation Groundspeed Altitude Reporting Facility
EDT Latitude Longitude Course Direction KTS MPH feet Rate Location/Type
Fri 01:09:13 PM 36.9078 -76.1867 43° Northeast 202 232 1,000  Level Washington Center
Fri 01:10:14 PM 36.9497 -76.1378 43° Northeast 216 249 3,400 1,721 Climbing Washington Center
Fri 01:11:15 PM 36.9981 -76.0731 47° Northeast 256 295 4,500 1,443 Climbing Washington Center
Fri 01:11:33 PM 37.0189 -76.0522 39° Northeast 255 293 5,300 2,900 Climbing Washington Center
Fri 01:12:15 PM 37.0525 -76.0056 48° Northeast 285 328 7,400 2,754 Climbing Washington Center
Fri 01:12:34 PM 37.0711 -75.9822 45° Northeast 278 320 8,100 2,471 Climbing Washington Center
Fri 01:13:23 PM 37.1172 -75.9228 46° Northeast 315 362 10,200 2,586 Climbing Washington Center
Fri 01:13:32 PM 37.1319 -75.9072 40° Northeast 321 369 10,600 3,000 Climbing Washington Center
Fri 01:14:33 PM 37.1947 -75.8214 47° Northeast 343 395 13,700 3,098 Climbing Washington Center
Fri 01:15:34 PM 37.2533 -75.7406 48° Northeast 335 386 16,900 2,898 Climbing Washington Center
Fri 01:16:31 PM 37.3325 -75.6886 28° Northeast 311 358 19,400 2,319 Climbing Washington Center
Fri 01:17:33 PM 37.4264 -75.6731 North 314 361 21,500 1,721 Climbing Washington Center
Fri 01:18:33 PM 37.5267 -75.6653 North 333 383 22,900 756 Climbing Washington Center
Fri 01:19:32 PM 37.6433 -75.6522 North 379 436 23,000 101 Climbing Washington Center
Fri 01:20:32 PM 37.7664 -75.6364 North 421 484 23,100 -347 Climbing Washington Center
Fri 01:21:33 PM 37.8936 -75.5997 13° North 450 518 22,300 -738 Descending Washington Center
Fri 01:22:34 PM 38.0106 -75.5047 33° Northeast 469 540 21,600 -605 Descending Washington Center
Fri 01:23:32 PM 38.1064 -75.4361 29° Northeast 475 547 21,100 -756 Descending Washington Center
Fri 01:24:33 PM 38.2522 -75.3458 26° Northeast 480 552 20,100 -1,033 Descending Washington Center
Fri 01:25:34 PM 38.3769 -75.2792 23° Northeast 480 552 19,000 -1,587 Descending Washington Center
Fri 01:26:34 PM 38.4936 -75.2069 26° Northeast 480 552 16,900 -1,932 Descending Washington Center
Fri 01:27:32 PM 38.6039 -75.1294 29° Northeast 459 528 15,200 -966 Descending Washington Center
Fri 01:28:32 PM 38.7097 -75.0622 26° Northeast 437 503 15,000 -99 Descending Washington Center
Fri 01:29:33 PM 38.8267 -75.0508 North 421 484 15,000 -298 Level Washington Center
Fri 01:30:33 PM 38.9411 -75.0444 North 411 473 14,400 -1,091 Descending Washington Center
Fri 01:32:51 PM 39.2000 -75.0333 North 415 478 11,400 -1,441 Descending Philadelphia TRACON
Fri 01:33:57 PM 39.3333 -75.0167 North 361 415 9,500 -1,300 Descending Philadelphia TRACON
Fri 01:34:51 PM 39.4167 -75.0167 360° North 315 362 8,800 -1,053 Descending Philadelphia TRACON
Fri 01:35:51 PM 39.5000 -75.0333 351° North 285 328 7,500 -1,368 Descending Philadelphia TRACON
Fri 01:36:45 PM 39.5500 -75.0667 333° Northwest 265 305 6,200 -1,350 Descending Philadelphia TRACON
Fri 01:37:51 PM 39.6333 -75.1000 343° North 256 295 4,800 -1,476 Descending Philadelphia TRACON
Fri 01:38:51 PM 39.7000 -75.1333 339° North 244 281 3,100 -1,450 Descending Philadelphia TRACON
Fri 01:39:51 PM 39.7500 -75.1667 333° Northwest 234 269 1,900 -1,000 Descending Philadelphia TRACON
Fri 01:40:51 PM 39.8000 -75.2000 333° Northwest 179 206 1,100 -700 Descending Philadelphia TRACON
Fri 01:41:51 PM 39.8500 -75.2167 346° North 156 180 500 -600 Descending Philadelphia TRACON

Login

Don't have an account? Register now (free) for customized features, flight alerts, and more!